Weather Roundup
Issued by NWS Chicago, IL

Home | Current Version | Previous Version | Graphics & Text | Print | Product List | Glossary On
Versions: 1 2 3 4 5 6 7 8 9 10 11 12 13 14 15 16 17 18 19 20 21 22 23 24 25 26 27 28 29 30 31 32 33 34 35 36 37 38 39 40 41 42 43 44 45 46 47 48 49 50
000
NZUS59 KLOT 280658
HRRLOT

CHICAGO AREA WEATHER ROUNDUP
NATIONAL WEATHER SERVICE CHICAGO/ROMEOVILLE IL
200 AM CDT MON JUL 28 2014

NOTE: "FAIR" INDICATES FEW OR NO CLOUDS BELOW 12,000 FEET WITH NO
SIGNIFICANT WEATHER AND/OR OBSTRUCTIONS TO VISIBILITY.

* THESE STATIONS ARE NOT UNDER NWS QUALITY CONTROL. THEY ALSO MAY NOT
  REPORT WEATHER SUCH AS PRECIPITATION OR FOG.

ILZ005-006-012>014-019>023-280800-
NORTHEAST ILLINOIS

CITY           SKY/WX    TMP DP  RH WIND       PRES   REMARKS
OHARE          MOCLDY    65  50  58 N18       29.93R
MIDWAY         MOCLDY    67  52  58 N17G26    29.92R
AURORA         CLEAR     63  52  67 N13       29.96R
WAUKEGAN       MOCLDY    61  52  72 NW7       29.94R
DUPAGE AIRPORT PTCLDY    63  53  70 N14       29.94R
WHEELING       PTCLDY    64  53  67 N13G23    29.95R
NORTHERLY IS     N/A     64  53  67 NW16        N/A
$$

WIZ051-052-058>065-066-070>072-280800-
SOUTHEAST WISCONSIN

CITY           SKY/WX    TMP DP  RH WIND       PRES   REMARKS
MILWAUKEE      PTCLDY    60  51  72 N9        29.95S
KENOSHA*       PTCLDY    59  53  80 NW7       29.95S
RACINE*        CLEAR     61  50  67 N12G21    29.96R
$$

INZ001>003-010>013-019-020-280800-
NORTHWEST INDIANA

CITY           SKY/WX    TMP DP  RH WIND       PRES   REMARKS
GARY*          NOT AVBL
MICHIGAN CITY* NOT AVBL
RENSSELAER*    NOT AVBL
VALPARAISO     CLOUDY    63  55  75 N14G22    29.89R
$$

LMZ740>746-280800-
SOUTHERN LAKE MICHIGAN

STATION/POSITION TIME  SKY/WX   TEMP WIND        PRES    VSBY
                                AIR  DIR/SP/G
                 (UTC)          (F)  (DEG/KT/KT) (MB)    (MI)
HARRISON CRIB    0600            65  350/ 31/ 36   N/A
BURNHAM HARBOR   0600            65  350/ 13/ 23   N/A
CALUMET HARBOR   0600            65  340/ 18/ 25 1011.7S
BURNS HARBOR     0600            65  360/ 25     1011.9F
MICHIGAN CITY    0600            64  340/ 34/ 42   N/A
$$

ABBREVIATIONS USED IN REMARKS
   TC - TEMPERATURE IN CELSIUS
  WCI - WIND CHILL INDEX
   HX - HEAT INDEX
  VSB - VISIBILITY
$$



USA.gov is the U.S. government's official web portal to all federal, state and local government web resources and services.